#timestamp,LO_Frequency,Hit,StdDev 
1662105615.6,286046996.7,N
1662105635.4,286046999.4,N
1662105655.3,286046997.1,N
1662105675.1,286046997.6,N
1662105695.9,286046996.6,N
1662105715.7,286046996.5,N
1662105735.5,286046997.1,N
1662105755.4,286046997.3,N
1662105775.2,286046995.1,N
1662105795.0,286046997.0,N
1662105795.9,286046997.0,N
1662105815.8,286046997.5,N
1662105835.6,286046995.2,N
1662105855.5,286046997.9,N
1662105875.3,286046997.0,N
1662105895.1,286046997.7,N
1662105915.9,286046997.5,N
1662105935.7,286046995.7,N
1662105955.6,286046995.1,Y
1662105975.4,286046997.3,P
1662105995.2,286046997.7,P
1662106015.1,286046996.6,P
1662106016.0,286046996.6,Y
1662106035.8,286047000.2,P
1662106055.7,286046999.8,N
1662106075.5,286047002.6,N
1662106095.3,286047002.3,N
1662106115.2,286047000.6,N
1662106135.9,286047000.9,N
1662106155.7,286047000.9,N
1662106175.6,286047001.2,N
1662106195.4,286047000.2,N
1662106215.3,286047000.0,N
1662106235.1,286047000.5,N
1662106236.0,286047000.5,N
1662106255.8,286047000.4,N
1662106275.7,286047000.4,N
1662106295.5,286047000.5,N
1662106315.3,286047000.9,N
1662106335.2,286046998.5,N
1662106355.0,286047001.0,N
1662106355.9,286047001.0,N
1662106375.8,286046998.6,N
1662106395.6,286047001.0,N
1662106415.4,286046998.1,N
1662106435.3,286047000.5,N
1662106455.1,286047001.0,N
1662106475.9,286046999.6,N
1662106495.7,286046998.9,N
1662106515.5,286046997.1,N
1662106535.4,286046996.8,N
1662106555.2,286046998.8,N
1662106575.0,286046996.9,N
1662106575.9,286046996.9,N
1662106595.8,286046998.2,N
1662106615.6,286046996.9,N
1662106635.5,286046996.5,N
1662106655.3,286046999.4,N
1662106675.1,286046998.5,N
1662106695.9,286046998.8,N
1662106715.7,286046997.3,N
1662106735.5,286046998.9,N
1662106755.4,286047001.1,N
1662106805.2,286046998.5,E
1662106815.2,286046999.8,N
1662106835.0,286047002.7,P
1662106835.9,286047002.7,N
1662106855.7,286047001.5,N
1662106875.6,286047002.1,N
1662106895.4,286047002.1,N
1662106915.3,286047001.8,N
1662106935.1,286047001.5,N
1662106936.0,286047001.5,N
1662106955.8,286047002.0,N
1662106975.7,286047002.0,N
1662106995.5,286047001.9,N
1662107015.3,286047002.3,Y
1662107035.2,286046998.5,P
1662107055.0,286047000.9,N
1662107055.9,286047000.9,N
1662107075.8,286047001.1,N
1662107095.6,286046998.5,N
1662107115.4,286047001.1,N
1662107135.3,286046998.5,N
1662107155.1,286046998.5,N
1662107175.9,286047000.3,N
1662107195.7,286047000.6,N
1662107215.5,286047000.7,N
1662107235.4,286047000.8,N
1662107255.2,286046998.6,N
1662107275.0,286047000.7,N
1662107275.9,286047000.7,N
1662107295.8,286047000.9,N
1662107315.6,286047001.0,N
1662107335.4,286047000.7,N
1662107355.3,286046998.3,N
1662107375.1,286046996.5,Y
1662107395.9,286046996.7,P
1662107415.7,286046996.5,N
1662107435.5,286046999.5,N
1662107455.4,286046999.3,N
1662107475.2,286046998.4,N
1662107495.0,286046998.5,N
1662107496.0,286046998.5,N
1662107515.8,286046998.3,N
1662107535.6,286046998.4,N
1662107555.5,286046998.3,N
1662107575.3,286047001.1,N
1662107595.1,286046998.2,N
1662107615.9,286046998.6,N
1662107635.7,286047000.7,N
1662107655.6,286046998.9,N
1662107675.4,286046999.1,N
1662107695.2,286046997.9,N
1662107715.1,286046995.4,Y
1662107716.0,286046995.4,P
1662107735.8,286046995.4,N
1662107755.7,286046995.7,N
1662107775.5,286046996.0,N
1662107795.3,286046993.7,Y
1662107815.2,286046999.1,P
1662107835.0,286046999.2,N
1662107835.9,286046999.2,N
1662107855.7,286046999.3,N
1662107875.6,286046996.7,N
1662107895.4,286046999.4,N
1662107915.3,286046996.6,N
1662107935.1,286046996.6,N
1662107936.0,286046996.6,N
1662107955.8,286046996.7,N
1662107975.7,286046997.1,N
1662107995.5,286046997.0,N
1662108015.4,286046996.6,N
1662108035.2,286046998.6,N
1662108055.0,286046998.7,N
1662108055.9,286046998.7,N
1662108075.8,286046999.4,N
1662108095.6,286046999.0,N
1662108115.4,286046999.1,N
1662108135.3,286046998.7,N
1662108155.1,286046999.6,N
1662108175.9,286046999.1,N
1662108195.7,286046999.5,N
1662108215.5,286046997.4,N
1662108235.4,286046997.2,N
1662108255.2,286046997.3,N
1662108275.0,286046998.7,N
1662108275.9,286046998.7,N
1662108295.8,286046998.9,N
1662108315.6,286046999.1,N
1662108335.5,286046999.2,N
1662108355.3,286046999.2,N
1662108375.1,286046998.9,N
1662108395.9,286047000.3,N
1662108415.7,286047001.0,N
1662108435.5,286047001.2,N
1662108455.4,286046999.2,N
1662108475.2,286046998.5,N
1662108495.1,286046999.4,N
1662108496.0,286046999.4,N
1662108515.8,286046999.3,N
1662108535.6,286046998.9,N
1662108555.5,286047000.5,N
1662108575.3,286047000.8,N
1662108595.1,286047000.6,N
1662108615.9,286047000.4,N
1662108635.7,286046999.9,N
1662108655.6,286047000.0,N
1662108675.4,286047000.5,N
1662108695.2,286047000.9,N
1662108715.1,286047000.5,N
1662108716.0,286047000.5,N
1662108735.8,286046999.9,N
1662108755.6,286047000.3,N
1662108775.5,286047000.5,N
1662108795.3,286047000.2,N
1662108815.2,286046999.9,N
1662108835.0,286047001.6,N
1662108835.9,286047001.6,N
1662108855.8,286047004.4,Y
1662108875.6,286047001.6,P
1662108895.4,286047002.0,N
1662108915.3,286046999.7,N
1662108935.1,286047000.2,N
1662108955.8,286047002.8,Y
1662108975.7,286047000.4,P
1662108995.5,286047000.0,N
1662109015.4,286046999.8,N
1662109035.2,286047001.6,Y
1662109055.0,286047004.0,P
1662109055.9,286047004.0,N
1662109075.8,286047001.3,N
1662109095.6,286047002.5,N
1662109115.5,286047001.6,N
1662109135.3,286047001.6,N
1662109155.1,286047001.9,N
1662109175.9,286047002.1,N
1662109195.7,286047002.3,N
